User: anonymous   Login
Location: Unspecified
(0.0000°N, 0.0000°E)
Time: 09:49:12
(UTC+00:00)
Language:

Explorer 22 - Orbit

View from above orbital plane
View from above orbital plane
View from above satellite
View from above satellite

Ground track
Ground track

The orbit data is extracted from the following two-line orbital elements,

1   899U 64064A   18147.94340675 +.00000044 +00000-0 +33133-4 0  9990
2   899 079.6904 103.1139 0119764 201.7648 157.8390 13.82057833698441
Epoch (UTC): 27 May 2018 22:38:30
Eccentricity: 0.0119764
inclination: 79.6904°
perigee height: 869 km
apogee height: 1044 km
right ascension of ascending node: 103.1139°
argument of perigee: 201.7648°
revolutions per day: 13.82057833
mean anomaly at epoch: 157.8390°
orbit number at epoch: 69844

The dashed part of the orbit path shows where the satellite is in the earth's shadow,  

DLR